Riverside, CA

11:17 PM PDT on April 23, 2017 (GMT -0700)
Riverside Municipal

Weather History for KRAL - February, 2014

Change the Weather History Date:

Sunday, February 16, 2014

  Actual Average Record
Temperature  
Mean Temperature 65 °F 56 °F  
Max Temperature 80 °F 67 °F 91 °F (2016)
Min Temperature 50 °F 44 °F 24 °F (1903)
Degree Days  
Heating Degree Days 0 9  
Month to date heating degree days 106 159  
Since 1 July heating degree days 625 1004  
Cooling Degree Days 0 0  
Month to date cooling degree days 8 0  
Year to date cooling degree days 27 6  
Growing Degree Days 16 (Base 50)    
Moisture  
Dew Point 40 °F    
Average Humidity 41    
Maximum Humidity 63    
Minimum Humidity 19    
Precipitation  
Precipitation 0.00 in 0.14 in 2.31 in (1927)
Month to date precipitation 0.05 1.52  
Year to date precipitation 0.05 4.46  
Since 1 July precipitation 1.20  
Snow  
Snow 0.00 in - - ()
Month to date snowfall 0.0  
Year to date snowfall 0.0  
Snow Depth 0.00 in    
Sea Level Pressure  
Sea Level Pressure 29.99 in    
Wind  
Wind Speed 3 mph (NW)    
Max Wind Speed 9 mph    
Max Gust Speed 13 mph    
Visibility 10 miles    
Events      
T = Trace of Precipitation, MM = Missing Value Source: NWS Daily Summary

Daily Weather History Graph

Daily Weather History Graph

Search for Another Location

Airport or City:

Trip Planner

Search our weather history database for the weather conditions in past years. The results will help you decide how hot, cold, wet, or windy it might be!

Date:

Astronomy

Feb. 16, 2014 Rise Set
Actual Time 6:33 AM PST 5:34 PM PST
Civil Twilight 6:07 AM PST 6:00 PM PST
Nautical Twilight 5:38 AM PST 6:29 PM PST
Astronomical Twilight 5:09 AM PST 6:58 PM PST
Moon 7:28 PM PST (2/16) 7:11 AM PST (2/16)
Length of Visible Light 11h 52m
Length of Day
11h 01m
Full, 97% of the Moon is Illuminated
Feb 16
Full
Feb 22
Last Quarter
Mar 1
New
Mar 8
First Quarter
Mar 16
Full

Hourly Weather History & Observations

Time (PST) Temp. Dew Point Humidity Pressure Visibility Wind Dir Wind Speed Gust Speed Precip Events Conditions
12:53 AM 55.9 °F 39.0 °F 53% 29.96 in 10.0 mi ESE 3.5 mph - N/A   Clear
1:53 AM 55.9 °F 39.0 °F 53% 29.95 in 10.0 mi Calm Calm - N/A   Clear
2:53 AM 55.0 °F 37.9 °F 53% 29.94 in 10.0 mi NE 4.6 mph - N/A   Clear
3:53 AM 51.1 °F 39.9 °F 66% 29.96 in 10.0 mi Calm Calm - N/A   Clear
4:53 AM 53.1 °F 37.0 °F 55% 29.96 in 10.0 mi Calm Calm - N/A   Clear
5:53 AM 52.0 °F 37.0 °F 57% 29.97 in 10.0 mi NE 5.8 mph - N/A   Clear
6:53 AM 51.1 °F 37.0 °F 59% 29.98 in 10.0 mi ENE 4.6 mph - N/A   Mostly Cloudy
7:53 AM 55.0 °F 35.1 °F 47% 30.01 in 10.0 mi Calm Calm - N/A   Mostly Cloudy
8:53 AM 57.0 °F 37.0 °F 47% 30.02 in 10.0 mi Calm Calm - N/A   Scattered Clouds
9:53 AM 64.0 °F 36.0 °F 35% 30.02 in 10.0 mi Calm Calm - N/A   Scattered Clouds
10:53 AM 70.0 °F 34.0 °F 27% 30.01 in 10.0 mi Variable 3.5 mph - N/A   Scattered Clouds
11:53 AM 73.9 °F 37.0 °F 26% 29.99 in 6.0 mi WNW 4.6 mph - N/A   Haze
12:53 PM 78.1 °F 32.0 °F 19% 29.95 in 8.0 mi Variable 3.5 mph - N/A   Clear
1:53 PM 80.1 °F 35.1 °F 20% 29.94 in 10.0 mi WNW 8.1 mph - N/A   Clear
2:53 PM 80.1 °F 35.1 °F 20% 29.93 in 10.0 mi Variable 4.6 mph - N/A   Mostly Cloudy
3:53 PM 79.0 °F 34.0 °F 20% 29.94 in 10.0 mi West 8.1 mph - N/A   Scattered Clouds
4:53 PM 75.9 °F 41.0 °F 29% 29.96 in 10.0 mi Variable 3.5 mph - N/A   Clear
5:53 PM 70.0 °F 44.1 °F 39% 29.98 in 10.0 mi West 4.6 mph - N/A   Clear
6:53 PM 66.9 °F 46.9 °F 49% 30.00 in 10.0 mi SSW 4.6 mph - N/A   Clear
7:53 PM 64.0 °F 48.0 °F 56% 30.02 in 10.0 mi Calm Calm - N/A   Clear
8:53 PM 61.0 °F 48.0 °F 62% 30.04 in 10.0 mi Calm Calm - N/A   Clear
9:53 PM 59.0 °F 46.0 °F 62% 30.05 in 10.0 mi Calm Calm - N/A   Clear
10:53 PM 57.9 °F 46.0 °F 65% 30.05 in 10.0 mi Calm Calm - N/A   Clear
11:53 PM 55.0 °F 46.0 °F 72% 30.04 in 10.0 mi Calm Calm - N/A   Clear